Location: Hilton Head Island
(32.2163°N, 80.7526°W)
Time: 12:58:34
(UTC-05:00)

Vanguard 2 - Pass Details

Date: 23 February 2026
Orbit: 553 x 2896 km, 32.9° (Epoch: 6 March)

Event Time Altitude Azimuth Distance (km) Brightness Sun altitude
Exits shadow 04:26:33 69° 150° (SSE) 1,163 8.3 -32.5°
Drops below altitude 10° 04:31:57 10° 82° (E) 2,416 11.0 -31.4°
Sets 04:33:59 0° 80° (E) 3,169 11.9 -31.0°
